Weather in Il'pyrskoye

Russia / Kamchatka Krai     59°57′42″N   164°11′04″E
В апреле 2022 года жителям России запретили посещать сайт meteo.paraplan.net по решению Генеральной прокуратуры. Аудитория сайта уменьшилась в 10 раз. Владельцы сайта не видят смысла в поддержке погодного сервера в таких условиях. Сайт будет закрыт в октябре.
temp.,
°C
wind,
m/s
gust,
m/s
humid.,
%
clouds,
%
prec.,
mm/h
press.,
hPa
HPBL,
m
4 october, tue
tue400:00+1nne33767 0.0 101193
03:00+3ese3372100 0.0 1010243
06:00+3e4572100 0.0 1010503
09:00+3e4695100 1.5 1010465
12:00+2ene5796100 2.4 1011410
15:00+5ene5685100 0.0 1011462
18:00+4ene6991100 0.1 1009485
21:00+6ese71188100 0.2 1008613
5 october, wed
wed500:00+7ese111487100 1.1 10041028
03:00+6e152095100 4.5 999780
06:00+8se91398100 7.7 994500
09:00+8sse5799100 0.9 992307
12:00+7se6999100 5.8 991321
15:00+8se6898100 6.1 988234
18:00+8se3499100 13.3 986112
21:00+4nnw81494100 14.2 989917
6 october, thu
thu600:00+4wnw101480100 17.6 990966
03:00+4wnw71274100 0.0 990838
06:00+4wsw7106568 0.1 992927
09:00+5sw1113635 0.1 9941084
12:00+6sw13146176 0.1 9961333
15:00+6sw1215568 0.0 9961804
18:00+6sw1315639 0.1 9971179
21:00+5sw1316670 0.0 9981057
7 october, fri
fri700:00+5sw121463100 0.0 999955
03:00+5sw12156294 0.0 998956
06:00+4sw8116499 0.0 1000698
09:00+4wsw4566100 0.0 1001430
12:00+5nnw4367100 0.0 1001721
15:00+3nnw4570100 0.1 1003888
18:00+2nw3774100 0.6 1005831
21:00+1wnw346899 0.0 1007466
8 october, sat
sat800:00+1wnw456695 0.1 1008444
03:000nw567536 0.0 1009450
06:00−1nw46785 0.0 1011452
09:000wnw45695 0.0 1013569
12:00+2nw710485 0.0 10141354
15:00+2w577477 0.0 1016881
18:00+2wnw5870100 0.2 1017739
21:00+2w475295 0.1 1017812